Kailua Kona, HI

11:42 AM HST on February 25, 2017 (GMT -1000)
Kona International At Keahole

Weather History for PHKO - December, 2011

Change the Weather History Date:

Wednesday, December 14, 2011

  Actual Average Record
Temperature  
Mean Temperature 75 °F -  
Max Temperature 79 °F 80 °F 87 °F (1986)
Min Temperature 71 °F 68 °F 64 °F (2016)
Cooling Degree Days 10    
Growing Degree Days 25 (Base 50)    
Moisture  
Dew Point 68 °F    
Average Humidity 80    
Maximum Humidity 94    
Minimum Humidity 69    
Precipitation  
Precipitation 0.21 in - - ()
Sea Level Pressure  
Sea Level Pressure 30.02 in    
Wind  
Wind Speed 5 mph (NNW)    
Max Wind Speed 8 mph    
Max Gust Speed -    
Visibility 10 miles    
Events Rain    
Averages and records for this station are not official NWS values.
T = Trace of Precipitation, MM = Missing Value Source: NWS Daily Summary

Daily Weather History Graph

Daily Weather History Graph

Search for Another Location

Airport or City:

Trip Planner

Search our weather history database for the weather conditions in past years. The results will help you decide how hot, cold, wet, or windy it might be!

Date:

Astronomy

Dec. 14, 2011 Rise Set
Actual Time 6:50 AM HST 5:47 PM HST
Civil Twilight 6:26 AM HST 6:11 PM HST
Nautical Twilight 5:58 AM HST 6:38 PM HST
Astronomical Twilight 5:31 AM HST 7:05 PM HST
Moon 9:53 PM HST (12/14) 10:03 AM HST (12/14)
Length of Visible Light 11h 45m
Length of Day
10h 57m
Waning Gibbous, 82% of the Moon is Illuminated
Dec 14
Waning Gibbous
Dec 17
Last Quarter
Dec 24
New
Dec 31
First Quarter
Jan 8
Full

Hourly Weather History & Observations

Time (HST) Temp. Dew Point Humidity Pressure Visibility Wind Dir Wind Speed Gust Speed Precip Events Conditions
12:53 AM 71.1 °F 66.9 °F 87% 30.02 in 10.0 mi ENE 6.9 mph - N/A   Partly Cloudy
1:53 AM 73.0 °F 68.0 °F 84% 30.02 in 10.0 mi NNE 6.9 mph - N/A   Overcast
2:53 AM 73.0 °F 69.1 °F 87% 30.01 in 10.0 mi North 5.8 mph - N/A   Mostly Cloudy
3:53 AM 72.0 °F 68.0 °F 87% 30.00 in 7.0 mi NNE 5.8 mph - 0.16 in Rain Rain
4:53 AM 72.0 °F 69.1 °F 91% 30.00 in 10.0 mi NNE 5.8 mph - 0.05 in   Overcast
5:53 AM 73.0 °F 69.1 °F 87% 30.01 in 10.0 mi NW 4.6 mph - N/A   Overcast
6:08 AM 73.4 °F 69.8 °F 88% 30.02 in 10.0 mi NNW 4.6 mph - N/A   Overcast
6:15 AM 73.4 °F 69.8 °F 88% 30.02 in 10.0 mi NW 3.5 mph - N/A   Overcast
6:27 AM 73.4 °F 69.8 °F 88% 30.02 in 10.0 mi North 4.6 mph - N/A   Overcast
6:40 AM 71.6 °F 69.8 °F 94% 30.02 in 10.0 mi NNE 5.8 mph - N/A   Mostly Cloudy
6:53 AM 72.0 °F 68.0 °F 87% 30.03 in 10.0 mi NNE 5.8 mph - N/A   Partly Cloudy
7:53 AM 72.0 °F 68.0 °F 87% 30.04 in 10.0 mi Calm Calm - N/A   Clear
8:53 AM 75.9 °F 68.0 °F 76% 30.05 in 10.0 mi Calm Calm - N/A   Clear
9:53 AM 77.0 °F 69.1 °F 76% 30.06 in 10.0 mi West 4.6 mph - N/A   Partly Cloudy
10:53 AM 78.1 °F 68.0 °F 71% 30.06 in 10.0 mi West 5.8 mph - N/A   Partly Cloudy
11:53 AM 78.1 °F 68.0 °F 71% 30.04 in 10.0 mi WNW 6.9 mph - N/A   Mostly Cloudy
12:53 PM 79.0 °F 68.0 °F 69% 30.01 in 10.0 mi West 8.1 mph - N/A   Overcast
1:53 PM 77.0 °F 66.9 °F 71% 30.00 in 10.0 mi West 4.6 mph - N/A   Overcast
2:53 PM 77.0 °F 66.9 °F 71% 29.99 in 10.0 mi West 4.6 mph - N/A   Overcast
3:53 PM 77.0 °F 66.9 °F 71% 29.99 in 10.0 mi SW 5.8 mph - N/A   Overcast
4:53 PM 77.0 °F 66.9 °F 71% 30.00 in 10.0 mi SSW 6.9 mph - N/A   Mostly Cloudy
5:53 PM 75.9 °F 68.0 °F 76% 30.01 in 10.0 mi South 4.6 mph - 0.00 in Rain Light Rain
6:53 PM 75.9 °F 68.0 °F 76% 30.03 in 10.0 mi SE 3.5 mph - N/A   Overcast
7:53 PM 75.9 °F 66.0 °F 71% 30.04 in 10.0 mi SE 3.5 mph - N/A   Scattered Clouds
8:53 PM 75.0 °F 66.9 °F 76% 30.04 in 10.0 mi SSE 3.5 mph - N/A   Clear
9:53 PM 73.9 °F 64.9 °F 73% 30.05 in 10.0 mi SE 3.5 mph - N/A   Clear
10:53 PM 73.0 °F 64.9 °F 76% 30.04 in 10.0 mi SE 5.8 mph - N/A   Clear
11:53 PM 72.0 °F 64.9 °F 78% 30.04 in 10.0 mi East 4.6 mph - N/A   Clear